Flag for Germany Weather past 2 weeks in Oberursel (Taunus), Hesse, Germany

Now
60 °F

Passing clouds.


Feels Like: 60 °F
Forecast: 52 / 69 °F
Wind: 7 mph from Northeast

Location: Frankfurt / M-Flughafen


UV Index: 3 (Moderate)

Visibility: 31 mi


Pressure: 29.91 "Hg

Humidity: 48%

Dew point: 40 °F

Location of Oberursel (Taunus)Location

Historic Weather in Oberursel (Taunus)

°F

Oberursel (Taunus) temperature yesterday

Maximum temperature yesterday: 57 °F (at 5:00 PM)
Minimum temperature yesterday: 47 °F (at 4:00 AM)
Average temperature yesterday: 51 °F

Past Weeks' High & Low Weather Summary

 TemperatureHumidityPressure
High72 °F (Apr 4, 4:00 PM)95% (Apr 6, 6:00 AM)30.44 "Hg (Apr 6, 6:00 AM)
Low33 °F (Apr 16, 6:00 AM)26% (Apr 17, 6:00 PM)29.69 "Hg (Apr 4, 6:00 PM)
Average54 °F61%30.09 "Hg
* Reported Apr 4 1:00 PM — Apr 19 1:00 PM, Oberursel (Taunus), Weather by CustomWeather, © 2014

Note: Actual official high and low records may vary slightly from our data, if they occured in-between our weather recording intervals... More about our weather records

Advertising

Historic Weather Conditions — Data for Previous 24 hours

 ConditionsComfort  
Time TempWeatherWind HumidityBarometerVisibility
1:00 PM
Apr 19
56 °FPassing clouds.8 mph53%29.96 "Hg31 mi
12:00 PM52 °FScattered clouds.8 mph56%29.98 "Hg31 mi
11:00 AM49 °FScattered clouds.8 mph64%30.00 "Hg31 mi
10:00 AM46 °FPartly sunny.5 mph74%30.01 "Hg31 mi
9:00 AM44 °FPartly sunny.5 mph76%30.01 "Hg31 mi
8:00 AM42 °FPassing clouds.5 mph81%30.01 "Hg31 mi
7:00 AM39 °FOvercast.2 mph86%29.99 "Hg31 mi
6:00 AM39 °FPassing clouds.1 mph86%29.99 "Hg31 mi
5:00 AM37 °FPassing clouds.2 mph86%29.98 "Hg31 mi
4:00 AM38 °FPassing clouds.2 mph83%29.98 "Hg31 mi
3:00 AM38 °FPassing clouds.1 mph84%29.98 "Hg31 mi
2:00 AM41 °FPassing clouds.1 mph76%29.97 "Hg31 mi
1:00 AM46 °FPassing clouds.2 mph64%29.96 "Hg31 mi
12:00 AM46 °FPassing clouds.1 mph61%29.97 "Hg37 mi
10:00 PM
Apr 18
47 °FPassing clouds.1 mph52%29.96 "Hg37 mi
9:00 PM50 °FPassing clouds.2 mph44%29.94 "Hg37 mi
8:00 PM52 °FScattered clouds.5 mph40%29.91 "Hg37 mi
7:00 PM54 °FScattered clouds.7 mph37%29.90 "Hg37 mi
6:00 PM54 °FScattered clouds.7 mph40%29.89 "Hg37 mi
5:00 PM57 °FPassing clouds.5 mph30%29.88 "Hg37 mi
4:00 PM55 °FScattered clouds.8 mph34%29.88 "Hg37 mi
3:00 PM56 °FScattered clouds.6 mph30%29.88 "Hg37 mi
2:00 PM56 °FScattered clouds.5 mph40%29.89 "Hg37 mi
Weather by CustomWeather, © 2014

See weather overview